Weather History for Morristown, NJ

Change the Weather History Date:

Friday, March 9, 2012

  Actual Average Record
Temperature  
Mean Temperature 48 °F -  
Max Temperature 62 °F 47 °F 76 °F (1987)
Min Temperature 35 °F 26 °F 3 °F (1943)
Degree Days  
Heating Degree Days 16    
Moisture  
Dew Point 28 °F    
Average Humidity 59    
Maximum Humidity 93    
Minimum Humidity 27    
Precipitation  
Precipitation 0.07 in - - ()
Sea Level Pressure  
Sea Level Pressure 30.08 in    
Wind  
Wind Speed 12 mph (NW)    
Max Wind Speed 24 mph    
Max Gust Speed 34 mph    
Visibility 10 miles    
Events Rain    
Averages and records for this station are not official NWS values.
T = Trace of Precipitation, MM = Missing Value Source: NWS Daily Summary

Daily Weather History Graph

Daily Weather History Graph

Search for Another Location

Airport:

Trip Planner

Search our weather history database for the weather conditions in past years. The results will help you decide how hot, cold, wet, or windy it might be!

Date:

Astronomy

Mar. 09, 2012 Rise Set
Actual Time 6:18 AM EST 5:58 PM EST
Civil Twilight 5:51 AM EST 6:25 PM EST
Nautical Twilight 5:19 AM EST 6:57 PM EST
Astronomical Twilight 4:47 AM EST 7:29 PM EST
Moon 7:56 PM EST (3/9) 6:34 AM EST (3/9)
Length of Visible Light 12h 34m
Length of Day
11h 40m
Full, 98% of the Moon is Illuminated
Mar 9
Full
Mar 14
Last Quarter
Mar 22
New
Mar 30
First Quarter
Apr 6
Full

Hourly Weather History & Observations

Time (EST) Temp. Windchill Dew Point Humidity Pressure Visibility Wind Dir Wind Speed Gust Speed Precip Events Conditions
12:15 AM 62.6 °F - 50.0 °F 63% 29.83 in 10.0 mi SW 13.8 mph 24.2 mph N/A Rain Light Rain
12:35 AM 62.6 °F - 50.0 °F 63% 29.83 in 10.0 mi SW 24.2 mph 34.5 mph N/A Rain Light Rain
12:55 AM 59.0 °F - 51.8 °F 77% 29.85 in 7.0 mi West 15.0 mph 26.5 mph N/A Rain Rain
1:15 AM 46.4 °F 40.7 °F 44.6 °F 93% 29.92 in 3.0 mi NW 12.7 mph 26.5 mph N/A Rain Rain
1:35 AM 44.6 °F 38.4 °F 42.8 °F 93% 29.92 in 7.0 mi NW 12.7 mph 20.7 mph 0.02 in   Drizzle
1:55 AM 44.6 °F 39.7 °F 41.0 °F 87% 29.94 in 10.0 mi NW 9.2 mph 21.9 mph N/A   Overcast
2:15 AM 44.6 °F 38.8 °F 41.0 °F 87% 29.94 in 10.0 mi NW 11.5 mph 19.6 mph 0.02 in   Drizzle
2:35 AM 42.8 °F 35.8 °F 37.4 °F 81% 29.94 in 10.0 mi NW 13.8 mph 20.7 mph 0.03 in   Light Drizzle
2:55 AM 42.8 °F 37.5 °F 37.4 °F 81% 29.95 in 10.0 mi NW 9.2 mph 19.6 mph N/A Rain Rain
3:15 AM 42.8 °F 38.0 °F 37.4 °F 81% 29.98 in 10.0 mi NW 8.1 mph - 0.01 in   Overcast
3:35 AM 42.8 °F 37.5 °F 35.6 °F 76% 29.98 in 10.0 mi WNW 9.2 mph 19.6 mph 0.02 in   Overcast
3:55 AM 41.0 °F 34.7 °F 35.6 °F 81% 30.00 in 10.0 mi WNW 10.4 mph - N/A   Overcast
4:15 AM 41.0 °F 37.1 °F 33.8 °F 76% 30.01 in 10.0 mi NW 5.8 mph - N/A   Overcast
4:35 AM 41.0 °F 36.4 °F 33.8 °F 76% 30.02 in 10.0 mi NW 6.9 mph - N/A   Mostly Cloudy
4:55 AM 41.0 °F 36.4 °F 33.8 °F 76% 30.04 in 10.0 mi NW 6.9 mph - N/A   Scattered Clouds
5:15 AM 41.0 °F 35.8 °F 33.8 °F 76% 30.05 in 10.0 mi WNW 8.1 mph - N/A   Scattered Clouds
5:35 AM 41.0 °F 36.4 °F 33.8 °F 76% 30.05 in 10.0 mi NNW 6.9 mph - N/A   Clear
6:45 AM 41.0 °F 34.7 °F 30.2 °F 65% 30.09 in 10.0 mi North 10.4 mph 19.6 mph N/A   Mostly Cloudy
7:45 AM 39.2 °F 28.7 °F 24.8 °F 56% 30.12 in 10.0 mi North 23.0 mph - N/A   Mostly Cloudy
8:45 AM 39.2 °F 31.6 °F 21.2 °F 49% 30.14 in 10.0 mi North 12.7 mph 20.7 mph N/A   Mostly Cloudy
9:45 AM 41.0 °F 34.3 °F 21.2 °F 45% 30.15 in 10.0 mi NNW 11.5 mph 20.7 mph N/A   Mostly Cloudy
10:45 AM 42.8 °F 37.0 °F 21.2 °F 42% 30.13 in 10.0 mi NW 10.4 mph 19.6 mph N/A   Mostly Cloudy
11:45 AM 44.6 °F 39.2 °F 21.2 °F 39% 30.12 in 10.0 mi NW 10.4 mph - N/A   Mostly Cloudy
12:45 PM 46.4 °F 42.4 °F 15.8 °F 29% 30.10 in 10.0 mi WNW 8.1 mph 21.9 mph N/A   Mostly Cloudy
1:50 PM 50.0 °F - 17.6 °F 28% 30.08 in 10.0 mi NW 11.5 mph 19.6 mph N/A   Mostly Cloudy
2:45 PM 51.8 °F - 19.4 °F 28% 30.06 in 10.0 mi NW 13.8 mph 20.7 mph N/A   Mostly Cloudy
3:45 PM 48.2 °F - 17.6 °F 30% 30.08 in 10.0 mi WNW 15.0 mph 27.6 mph N/A   Mostly Cloudy
4:45 PM 48.2 °F - 15.8 °F 27% 30.10 in 10.0 mi WNW 18.4 mph 29.9 mph N/A   Mostly Cloudy
5:45 PM 42.8 °F 36.6 °F 23.0 °F 46% 30.16 in 10.0 mi NNW 11.5 mph 23.0 mph N/A   Mostly Cloudy
6:45 PM 41.0 °F 35.8 °F 24.8 °F 53% 30.20 in 10.0 mi North 8.1 mph 19.6 mph N/A   Mostly Cloudy
7:45 PM 39.2 °F 37.0 °F 23.0 °F 52% 30.21 in 10.0 mi WNW 3.5 mph - N/A   Partly Cloudy
8:45 PM 37.4 °F 32.8 °F 19.4 °F 48% 30.22 in 10.0 mi NW 5.8 mph - N/A   Partly Cloudy
9:45 PM 37.4 °F 32.8 °F 15.8 °F 41% 30.25 in 10.0 mi North 5.8 mph 16.1 mph N/A   Partly Cloudy
9:55 PM 37.4 °F 29.8 °F 17.6 °F 45% 30.24 in 10.0 mi NW 11.5 mph 18.4 mph N/A   Clear
10:15 PM 35.6 °F 28.0 °F 17.6 °F 48% 30.25 in 10.0 mi NW 10.4 mph 16.1 mph N/A   Clear
10:35 PM 35.6 °F 31.7 °F 17.6 °F 48% 30.26 in 10.0 mi WNW 4.6 mph - N/A   Clear
10:55 PM 35.6 °F 31.7 °F 17.6 °F 48% 30.26 in 10.0 mi NNW 4.6 mph - N/A   Mostly Cloudy
11:15 PM 35.6 °F 27.5 °F 19.4 °F 52% 30.27 in 10.0 mi NW 11.5 mph - N/A   Overcast
11:35 PM 35.6 °F 26.2 °F 19.4 °F 52% 30.28 in 10.0 mi WNW 15.0 mph 20.7 mph N/A   Overcast
11:55 PM 35.6 °F 27.1 °F 17.6 °F 48% 30.28 in 10.0 mi WNW 12.7 mph 16.1 mph N/A   Overcast